Regional Weather Roundup
Issued by NWS Cleveland, OH

Home | Current Version | Previous Version | Graphics & Text | Print | Product List | Glossary On
Versions: 1 2 3 4 5 6 7 8 9 10 11 12 13 14 15 16 17 18 19 20 21 22 23 24 25 26 27 28 29 30 31 32 33 34 35 36 37 38 39 40 41 42 43 44 45 46 47 48 49 50
000
ASUS41 KCLE 221200
RWRCLE
OHIO REGIONAL WEATHER ROUNDUP
NATIONAL WEATHER SERVICE WILMINGTON, OH
800 AM EDT FRI AUG 22 2014

NOTE: "FAIR" INDICATES FEW OR NO CLOUDS BELOW 12,000 FEET WITH NO
SIGNIFICANT WEATHER AND/OR OBSTRUCTIONS TO VISIBILITY.

OHZ001>008-015>018-024>027-034-035-043-044-221300-
   NORTHWEST OHIO

CITY           SKY/WX    TMP DP  RH WIND       PRES   REMARKS
DEFIANCE       CLOUDY    71  68  90 CALM      29.98R
FINDLAY        CLOUDY    71  69  93 S5        29.98S FOG
TOLEDO EXPRESS PTSUNNY   70  69  97 CALM      29.97F FOG
TOLEDO METCALF PTSUNNY   73  68  84 CALM      29.99R
LIMA           CLOUDY    72  69  90 SW3       30.00S
$$

OHZ009>014-019>023-028>033-038-089-221300-
   NORTHEAST OHIO

CITY           SKY/WX    TMP DP  RH WIND       PRES   REMARKS
CLE-HOPKINS    CLOUDY    69  67  93 SW5       30.02R
CLE-LAKEFRONT  CLOUDY    74  68  81 SW7       29.97R
CUY CO. ARPT   NOT AVBL
LORAIN-ELYRIA  CLOUDY    73  68  84 W5        30.01R
ASHTABULA      CLOUDY    69  68  96 CALM      30.00S FOG
AKRON-CANTON   CLOUDY    70  67  90 SW5       30.01R
WOOSTER        NOT AVBL
MANSFIELD      PTSUNNY   71  71 100 CALM      30.02R FOG
YOUNGSTOWN     CLOUDY    69  67  93 S3        30.01R FOG
$$

OHZ042-051>053-060>062-070>072-077>081-221300-
  SOUTHWEST OHIO

CITY           SKY/WX    TMP DP  RH WIND       PRES   REMARKS
CINC-COVINGTON CLOUDY    74  71  91 SW6       30.01R
CINC-LUNKEN    CLOUDY    71  70  96 CALM      30.01R
HAMILTON       CLOUDY    71  71 100 E3        30.02R FOG
DAYTON         NOT AVBL
WRIGHT-PAT AFB TSTM      70  70 100 W8        30.03R
DAYTON GENERAL LGT RAIN  71  69  93 CALM      30.02R FOG
WILMINGTON     CLOUDY    71  67  87 SW5       30.02R
$$

OHZ036-037-039>041-045>050-054>059-063>069-073>076-082>088-221300-
  CENTRAL AND SOUTHEAST OHIO

CITY           SKY/WX    TMP DP  RH WIND       PRES   REMARKS
COLUMBUS       CLOUDY    71  67  87 S3        30.01R
OSU AIRPORT    CLOUDY    70  68  93 CALM      30.02R FOG
BOLTON FIELD   NOT AVBL
RICKENBACK AFB NOT AVBL
NEWARK         CLOUDY    69  67  93 CALM      30.02R
MARION         CLOUDY    70  69  97 CALM      30.01R FOG
LANCASTER      CLOUDY    70  67  90 CALM      30.03R
ZANESVILLE     FOG       70  68  93 SW5       30.02R VSB 1
NEW PHILLY     CLOUDY    71  69  93 CALM      30.02R
$$


USA.gov is the U.S. government's official web portal to all federal, state and local government web resources and services.